TimeCDT,TemperatureF,Dew PointF,Humidity,Sea Level PressureIn,VisibilityMPH,Wind Direction,Wind SpeedMPH,Gust SpeedMPH,PrecipitationIn,Events,Conditions,WindDirDegrees,DateUTC
12:15 AM,74.5,64.4,71,30.01,10.0,NE,3.5,-,N/A,,Clear,40,2013-07-03 05:15:00
12:35 AM,74.3,64.4,71,30.01,10.0,NE,3.5,-,N/A,,Clear,40,2013-07-03 05:35:00
12:55 AM,73.6,64.8,74,30.01,10.0,NE,3.5,-,N/A,,Clear,40,2013-07-03 05:55:00
1:15 AM,73.4,64.4,73,30.01,10.0,NE,3.5,-,N/A,,Clear,50,2013-07-03 06:15:00
1:35 AM,73.0,64.4,74,30.01,10.0,NNE,3.5,-,N/A,,Clear,30,2013-07-03 06:35:00
1:55 AM,71.8,64.4,77,30.01,10.0,NNE,5.8,-,N/A,,Clear,20,2013-07-03 06:55:00
2:15 AM,71.6,64.6,78,30.01,10.0,NNE,4.6,-,N/A,,Clear,20,2013-07-03 07:15:00
2:35 AM,71.2,64.6,79,30.00,10.0,NNE,5.8,-,N/A,,Clear,20,2013-07-03 07:35:00
2:55 AM,71.6,64.4,78,30.00,10.0,NNE,4.6,-,N/A,,Clear,20,2013-07-03 07:55:00
3:15 AM,71.1,64.2,79,30.00,10.0,NNE,4.6,-,N/A,,Clear,20,2013-07-03 08:15:00
3:35 AM,70.3,63.9,80,30.00,10.0,North,3.5,-,N/A,,Clear,350,2013-07-03 08:35:00
3:55 AM,69.8,63.7,81,30.00,10.0,North,3.5,-,N/A,,Clear,10,2013-07-03 08:55:00
4:15 AM,70.2,63.7,80,30.00,10.0,NNW,3.5,-,N/A,,Clear,340,2013-07-03 09:15:00
4:35 AM,68.9,64.0,84,29.99,10.0,North,3.5,-,N/A,,Clear,360,2013-07-03 09:35:00
4:55 AM,69.3,64.0,83,29.99,10.0,North,4.6,-,N/A,,Clear,10,2013-07-03 09:55:00
5:15 AM,68.9,63.5,83,29.99,10.0,North,3.5,-,N/A,,Clear,10,2013-07-03 10:15:00
5:35 AM,69.4,63.3,81,30.00,10.0,North,3.5,-,N/A,,Clear,10,2013-07-03 10:35:00
5:55 AM,69.1,63.5,82,30.00,10.0,Calm,Calm,-,N/A,,Mostly Cloudy,0,2013-07-03 10:55:00
6:00 AM,69.8,62.6,78,30.00,10.0,Calm,Calm,-,N/A,,Scattered Clouds,0,2013-07-03 11:00:00
6:15 AM,69.8,63.1,79,30.00,10.0,North,3.5,-,N/A,,Mostly Cloudy,360,2013-07-03 11:15:00
6:35 AM,69.3,63.0,80,30.00,10.0,Calm,Calm,-,N/A,,Scattered Clouds,0,2013-07-03 11:35:00
6:50 AM,69.8,62.6,78,30.00,10.0,Calm,Calm,-,N/A,,Scattered Clouds,0,2013-07-03 11:50:00
6:55 AM,70.0,63.1,79,30.00,10.0,North,4.6,-,N/A,,Clear,360,2013-07-03 11:55:00
7:50 AM,73.4,62.6,69,30.02,10.0,Variable,5.8,-,N/A,,Clear,0,2013-07-03 12:50:00
8:48 AM,78.8,64.4,61,30.03,10.0,Variable,5.8,-,N/A,,Clear,0,2013-07-03 13:48:00
9:57 AM,82.4,64.4,54,30.04,10.0,Variable,4.6,-,N/A,,Clear,0,2013-07-03 14:57:00
10:50 AM,84.2,62.6,48,30.04,10.0,Variable,5.8,-,N/A,,Clear,0,2013-07-03 15:50:00
11:50 AM,87.8,62.6,43,30.04,10.0,Variable,5.8,-,N/A,,Clear,0,2013-07-03 16:50:00
12:50 PM,87.8,62.6,43,30.02,10.0,Calm,Calm,-,N/A,,Scattered Clouds,0,2013-07-03 17:50:00
1:50 PM,89.6,57.2,33,30.00,10.0,East,8.1,-,N/A,,Scattered Clouds,80,2013-07-03 18:50:00
2:50 PM,89.6,57.2,33,29.99,10.0,ENE,8.1,-,N/A,,Scattered Clouds,60,2013-07-03 19:50:00
3:50 PM,91.4,57.2,31,29.97,10.0,NNE,8.1,-,N/A,,Scattered Clouds,30,2013-07-03 20:50:00
4:52 PM,73.4,57.2,57,29.95,10.0,ENE,8.1,-,N/A,,Scattered Clouds,70,2013-07-03 21:52:00
5:51 PM,89.6,55.4,31,29.94,10.0,ENE,8.1,-,N/A,,Clear,60,2013-07-03 22:51:00
6:52 PM,87.8,57.2,35,29.94,10.0,ENE,5.8,-,N/A,,Mostly Cloudy,60,2013-07-03 23:52:00
7:50 PM,84.2,59.0,42,29.95,10.0,NE,5.8,-,N/A,,Mostly Cloudy,50,2013-07-04 00:50:00
8:50 PM,82.4,60.8,48,29.95,10.0,ENE,5.8,-,N/A,,Scattered Clouds,60,2013-07-04 01:50:00
9:50 PM,80.6,60.8,51,29.97,10.0,NE,6.9,-,N/A,,Scattered Clouds,50,2013-07-04 02:50:00
11:15 PM,76.1,64.8,68,29.99,10.0,ENE,3.5,-,N/A,,Clear,70,2013-07-04 04:15:00
11:35 PM,75.7,65.3,70,29.99,10.0,Calm,Calm,-,N/A,,Clear,0,2013-07-04 04:35:00
11:55 PM,75.4,65.3,71,29.98,10.0,Calm,Calm,-,N/A,,Clear,0,2013-07-04 04:55:00